Temperature
18 18 18 18 18 18 18 18 17 17 17 17 17 17 17 17 17 17 17 17 17 17 17 17 16 17 17 17 17 16 16 16 16 16 16 16 16 16 16 15 16 16 15
18 18 18 18 18 18 18 17 17 17 17 17 17 17 17 17 17 17 17 17 17 17 17 17 16 16 16 17 16 16 16 16 16 16 16 16 16 16 16 16 16 15 15
18 18 18 18 18 17 17 17 17 17 17 17 17 17 17 16 17 17 17 17 16 16 16 16 16 16 16 16 16 16 16 16 16 16 16 16 16 16 16 16 15 15 15
18 18 18 18 17 17 17 17 17 17 17 17 17 17 16 16 16 16 16 16 16 16 16 16 16 16 16 16 16 16 16 16 16 16 16 16 16 16 16 16 15 15 15
18 18 18 17 17 17 17 17 17 17 17 17 17 16 16 16 16 16 16 16 16 16 16 16 16 16 16 16 16 16 16 16 16 16 16 16 16 16 15 15 15 15 15
18 18 17 17 17 17 17 17 17 17 17 17 17 16 16 16 16 16 16 16 16 16 16 16 16 16 16 16 16 16 16 16 16 16 15 15 15 15 15 15 15 15 15
18 18 17 17 17 17 17 17 17 17 17 17 17 16 16 16 16 16 16 16 16 16 16 16 16 16 16 16 16 16 16 15 15 15 15 15 15 15 15 15 15 15 15
18 18 18 17 17 17 17 17 17 17 17 17 17 16 16 16 16 16 16 16 16 16 16 16 16 16 16 16 16 16 15 15 15 15 15 15 15 15 15 15 15 14 14
18 18 18 18 17 17 17 17 17 17 17 17 17 17 16 16 16 16 16 16 16 16 16 16 16 16 16 16 16 16 15 15 15 15 15 15 15 14 14 14 14 14 14
18 18 18 18 18 17 17 17 17 17 17 17 17 17 17 17 16 16 16 16 16 16 16 16 16 16 16 16 16 15 15 15 15 15 15 14 14 14 14 14 14 14 14
18 18 18 18 18 17 17 17 17 17 17 17 17 17 17 17 17 16 16 16 16 16 16 16 16 16 16 16 15 15 15 15 15 15 14 14 14 14 14 14 14 14 13
18 18 18 18 18 17 17 17 17 17 17 17 17 17 17 17 17 17 16 16 16 16 16 16 16 16 16 15 15 15 15 15 15 14 14 14 14 14 14 14 13 13 13
18 18 18 18 18 17 17 17 17 17 17 17 17 17 17 17 17 17 16 16 16 16 16 16 16 16 15 15 15 15 15 15 14 14 14 14 14 14 13 13 13 13 13
18 18 18 18 18 17 17 17 17 17 17 17 17 17 17 17 17 17 17 16 16 15 16 16 16 16 15 15 15 15 15 14 14 14 14 14 14 13 13 13 13 13 13
18 18 18 18 17 17 17 17 17 17 17 17 17 17 17 17 16 16 16 16 16 15 15 16 16 15 15 15 15 15 14 14 14 14 14 14 13 13 13 13 13 13 12
18 18 18 18 18 17 17 17 17 17 17 17 17 17 17 17 16 16 16 16 16 16 15 15 15 15 15 15 14 14 14 14 14 14 14 13 13 13 13 13 13 12 12
18 18 18 17 17 17 17 17 17 17 17 17 17 17 17 17 16 16 16 16 16 16 15 15 15 15 15 14 14 14 14 14 14 13 13 13 13 13 13 12 12 12 12
18 18 18 17 17 17 17 17 17 17 17 17 17 17 17 17 17 16 16 16 16 16 15 15 15 15 14 14 14 14 14 14 13 13 13 13 13 12 12 12 12 12 12
19 18 18 18 18 17 17 17 17 17 17 17 17 17 17 17 16 16 16 16 16 16 15 15 15 15 14 14 14 14 14 13 13 13 13 13 12 12 12 12 12 11 11
19 18 18 18 18 17 17 17 17 17 17 17 17 17 17 16 16 16 16 16 16 16 15 15 15 15 14 14 14 14 13 13 13 13 12 12 12 12 12 12 11 11 11
18 18 18 18 18 17 17 17 17 17 17 17 17 17 17 16 16 16 16 16 16 15 15 15 15 15 14 14 14 13 13 13 13 12 12 12 12 12 12 11 11 11 11
18 18 18 18 17 17 17 17 17 17 17 17 17 17 16 16 16 16 16 16 16 15 15 15 15 14 14 14 14 13 13 13 12 12 12 12 12 11 11 11 11 11 11
18 18 18 18 17 17 17 17 17 17 16 16 16 16 16 16 16 16 16 16 15 15 15 15 14 14 14 14 14 13 13 13 12 12 12 11 11 11 11 11 11 11 10
18 18 18 18 17 17 17 17 16 16 16 16 16 16 16 16 16 16 16 16 15 15 15 15 14 14 14 14 14 13 13 12 12 12 11 11 11 11 11 11 11 11 10
18 18 18 17 17 17 17 17 16 16 16 16 16 16 16 16 16 16 15 15 15 15 15 14 14 14 14 13 13 13 13 12 12 11 11 11 11 11 11 11 11 11 10
18 17 17 17 17 17 17 16 16 16 16 16 16 16 15 15 15 15 15 15 15 15 14 14 14 14 14 13 13 13 12 12 12 11 11 11 11 11 11 11 10 10 10
Wind_Speed
3 3 3 4 4 5 5 5 6 7 7 7 6 6 5 5 4 3 3 3 3 4 5 4 4 4 5 5 5 5 5 6 6 7 7 7 6 6 5 6 6 7 7
4 3 3 4 4 5 6 6 6 6 6 6 6 5 5 5 4 3 3 2 2 3 4 4 3 3 4 4 5 5 5 5 6 6 6 6 5 5 5 6 7 7 7
4 4 4 4 4 6 7 7 7 6 6 6 5 5 4 4 4 3 3 2 2 2 2 3 3 2 3 3 3 4 5 5 5 5 5 5 5 6 7 7 7 7 8
5 4 4 4 5 6 6 5 5 5 5 5 4 3 4 3 4 4 3 3 3 2 1 1 1 1 2 2 2 4 4 5 4 4 5 6 6 7 7 7 7 7 7
5 5 4 4 5 5 4 5 4 4 5 4 4 3 3 3 3 3 2 2 2 2 1 1 1 1 1 1 1 2 4 4 4 4 4 5 6 7 7 7 7 7 7
5 5 4 5 5 4 4 4 5 4 3 4 4 4 3 2 2 2 1 1 1 0 0 0 1 0 1 1 1 1 2 3 3 3 3 3 5 6 6 6 7 7 7
5 5 4 4 4 4 4 4 4 4 2 3 3 3 3 3 2 1 1 1 1 1 1 1 1 1 1 1 2 2 3 3 4 4 4 3 3 4 6 6 6 6 7
4 4 4 3 4 4 4 4 3 3 1 2 2 2 1 2 2 1 0 0 1 0 1 1 2 1 1 1 2 3 4 4 4 4 4 3 3 2 3 3 4 5 6
3 4 4 4 4 4 3 3 4 4 3 1 1 3 2 2 1 1 1 1 1 1 1 1 1 1 2 1 2 3 4 3 3 3 2 2 3 3 2 3 3 4 5
3 4 4 4 4 3 3 4 4 3 3 3 1 1 2 3 2 0 1 1 1 1 1 1 1 1 2 2 2 2 2 2 2 2 2 1 2 2 2 2 2 3 3
1 3 4 4 4 3 3 3 3 3 3 3 3 2 2 1 2 2 2 1 1 1 1 2 1 1 1 1 1 1 2 2 2 1 0 0 0 0 1 1 1 1 1
0 1 3 3 4 3 4 4 3 3 3 3 3 3 3 2 3 3 3 2 1 1 1 1 1 1 1 1 2 3 3 4 4 3 2 2 1 1 1 1 1 2 1
1 2 2 3 3 4 4 4 3 3 4 3 3 3 3 3 2 3 3 2 1 1 1 1 1 1 1 2 2 3 4 5 4 4 3 3 3 3 3 3 2 2 2
3 3 3 3 3 4 4 4 3 3 3 3 4 3 3 3 3 4 3 3 1 1 1 2 0 1 1 2 2 3 3 4 4 4 4 4 4 4 4 4 4 5 5
3 3 3 3 3 3 3 3 3 3 3 3 3 4 3 3 3 4 4 4 3 2 3 2 2 1 2 2 3 4 3 4 4 4 4 4 4 4 5 5 5 5 5
2 2 3 3 3 3 3 3 3 3 3 3 3 3 3 3 3 3 4 4 4 4 3 2 2 1 2 2 3 4 4 4 4 4 4 4 4 4 4 4 4 4 5
2 2 2 2 3 3 3 3 3 3 4 3 3 4 4 3 3 3 3 4 4 4 4 2 1 1 2 3 3 3 3 4 3 4 4 4 3 3 3 4 4 4 5
3 3 2 3 4 4 3 4 4 4 4 4 4 4 4 3 3 3 3 4 4 4 4 4 2 2 2 3 3 3 3 3 3 4 4 4 4 4 4 3 3 4 4
3 3 3 3 3 3 3 4 4 4 4 5 5 5 5 4 4 3 4 4 4 4 3 4 2 2 1 2 2 2 2 2 3 3 4 4 3 4 4 3 3 3 2
3 3 3 3 3 3 3 3 3 3 4 4 4 5 5 6 6 5 4 5 4 4 4 4 3 2 2 2 2 2 2 2 2 2 3 3 3 3 3 3 3 3 2
3 3 2 3 3 3 3 3 3 4 4 4 4 4 5 7 8 6 5 5 5 4 4 4 3 3 3 3 4 3 3 2 2 2 2 2 2 2 2 3 4 4 4
2 2 2 3 3 3 4 5 4 3 4 4 5 4 5 5 6 7 8 8 8 7 6 5 4 5 6 5 4 4 4 3 2 3 3 2 3 3 4 4 4 5 5
2 2 2 2 3 4 4 5 5 4 4 5 5 4 4 4 4 4 5 6 7 9 9 7 7 7 7 7 7 6 5 5 3 3 4 3 2 3 4 5 6 6 6
3 3 3 3 3 4 4 4 4 3 4 4 5 5 5 5 4 4 4 4 4 5 7 7 7 7 6 7 8 7 6 4 2 2 4 3 2 3 3 4 6 8 8
2 2 2 3 3 4 5 4 3 2 3 4 4 5 5 5 5 5 4 5 4 4 4 6 6 5 5 7 8 5 5 4 3 3 3 3 2 2 2 3 5 7 8
3 3 3 3 4 5 5 4 3 2 3 4 3 4 5 6 5 5 5 5 6 5 3 3 3 3 4 6 9 8 7 6 4 3 4 4 3 2 2 2 2 4 5
Wind_Direction
88 82 79 78 85 89 91 93 94 95 92 93 102 107 105 99 104 105 108 110 125 154 155 158 167 180 181 181 179 180 181 183 183 185 188 196 203 207 208 212 210 212 210
101 95 87 87 90 96 97 98 100 99 93 92 92 98 99 95 91 90 92 90 122 147 160 169 175 173 177 185 188 194 192 188 182 184 192 199 205 211 220 224 219 219 220
106 102 100 92 93 101 100 98 95 95 96 92 89 91 93 95 92 84 77 68 80 109 135 159 165 167 182 185 191 195 197 190 185 190 197 204 212 218 226 229 225 222 221
108 104 99 96 102 106 104 103 101 100 97 97 92 85 83 85 81 76 72 70 74 73 81 99 112 135 164 186 200 195 186 182 186 201 210 214 218 221 224 227 227 220 217
109 112 104 103 105 104 101 109 101 110 112 107 99 83 76 81 75 79 77 76 80 74 51 15 43 147 151 177 197 191 192 193 198 206 218 223 225 226 227 228 228 224 219
113 113 108 107 110 105 98 105 108 100 110 114 101 80 64 66 68 60 49 49 65 103 285 335 342 166 197 224 214 220 201 198 204 212 226 235 238 234 228 230 233 232 226
122 120 116 110 114 118 125 127 117 111 111 117 96 69 46 50 54 35 34 25 321 220 174 171 147 141 287 261 235 244 241 234 233 234 234 236 240 239 237 234 233 235 234
136 139 128 131 130 128 125 132 134 127 142 147 127 112 43 7 5 0 3 256 286 255 209 182 168 188 244 267 258 249 253 249 247 246 237 233 235 231 232 233 228 233 238
147 149 151 150 149 150 159 165 162 158 174 187 159 150 157 210 304 350 349 315 294 253 244 180 187 199 212 224 248 253 247 243 248 256 257 242 219 217 220 240 252 249 244
155 160 163 162 161 163 169 183 176 175 167 184 183 181 177 161 164 302 335 335 304 279 269 247 225 213 214 219 224 230 222 224 231 265 269 228 212 229 234 247 258 246 236
160 166 169 168 171 177 186 188 177 183 186 187 183 166 164 166 173 187 252 293 333 298 271 258 235 204 211 207 184 159 173 181 166 155 176 217 175 166 211 261 285 295 289
220 188 175 174 180 186 195 199 196 198 199 197 191 185 179 180 186 184 214 231 252 285 291 275 250 205 168 150 151 137 134 119 114 115 102 82 70 58 39 360 350 352 346
228 224 193 186 191 197 196 191 195 207 202 198 201 203 202 206 179 171 178 200 223 274 293 287 254 224 180 156 146 143 133 124 120 109 98 86 76 66 47 30 24 24 12
228 219 200 199 205 200 195 185 195 206 198 203 210 203 201 206 187 182 179 172 187 248 249 250 245 207 186 163 154 141 131 129 124 114 106 95 84 75 69 60 48 40 40
226 215 205 202 208 202 195 186 198 210 198 207 214 211 208 207 195 195 188 187 181 213 246 231 217 208 179 156 148 132 130 130 125 113 107 99 90 84 78 72 59 53 51
233 216 220 210 206 208 204 197 204 206 200 215 215 212 215 216 203 197 195 199 199 199 226 222 217 202 178 156 140 139 138 135 135 132 125 117 107 100 94 83 71 67 70
223 217 220 220 221 224 218 208 219 208 207 224 225 217 226 216 208 205 199 197 196 191 217 236 210 184 177 170 140 137 143 143 148 150 141 128 119 112 107 99 88 79 76
224 225 220 226 232 229 222 212 223 220 215 225 230 225 231 218 215 212 205 205 203 198 201 212 203 193 192 180 162 151 143 142 147 146 151 146 141 136 125 112 100 93 84
230 227 221 224 230 230 224 217 216 221 221 226 225 224 228 216 226 222 212 210 209 201 193 190 193 181 180 171 156 151 149 146 162 160 157 160 160 159 153 142 132 122 113
217 226 230 232 232 231 224 222 214 220 226 234 233 231 229 222 225 220 215 210 200 189 175 176 176 178 183 172 170 181 181 182 186 180 173 174 175 175 175 172 174 167 158
222 223 226 239 238 226 224 223 220 223 228 239 245 245 241 233 227 219 216 205 191 187 184 187 190 186 195 190 198 190 192 189 210 203 193 202 199 207 213 211 208 203 200
238 228 227 233 241 245 240 225 217 225 234 240 251 257 257 247 233 227 220 209 198 195 197 199 207 210 214 207 195 187 178 180 211 192 188 214 204 221 227 225 219 210 208
212 228 235 231 245 257 250 238 227 226 234 240 246 253 258 250 233 229 225 217 215 213 204 199 209 217 211 203 188 190 195 197 206 178 177 217 213 227 235 228 220 217 215
213 223 233 236 244 262 255 248 241 233 243 248 249 246 244 250 238 219 217 222 230 229 221 212 215 220 215 200 193 191 188 181 169 172 179 212 214 229 239 234 227 220 218
222 224 233 238 246 264 257 251 241 239 248 259 259 252 241 244 239 217 209 221 235 243 227 207 206 210 204 193 182 171 170 179 208 214 189 201 209 218 233 242 236 222 219
220 224 241 247 253 260 255 247 229 231 249 262 266 260 247 240 237 216 212 216 228 235 213 198 192 201 201 192 188 192 189 192 195 211 190 189 190 182 221 227 229 219 217
Height
1526 1527 1527 1528 1529 1530 1531 1533 1535 1536 1538 1540 1541 1543 1544 1545 1546 1547 1548 1549 1549 1550 1551 1552 1552 1553 1554 1554 1555 1555 1556 1556 1557 1557 1558 1560 1561 1562 1563 1564 1565 1566 1567
1528 1528 1529 1530 1531 1533 1534 1535 1537 1538 1540 1541 1543 1544 1545 1546 1547 1548 1549 1550 1550 1551 1551 1552 1552 1553 1554 1554 1555 1555 1555 1556 1556 1557 1558 1559 1560 1560 1561 1562 1563 1564 1565
1529 1529 1530 1532 1533 1535 1536 1537 1539 1540 1541 1543 1544 1545 1547 1548 1548 1550 1550 1550 1551 1551 1552 1552 1553 1553 1554 1554 1554 1555 1555 1555 1556 1556 1557 1558 1558 1559 1560 1561 1561 1562 1563
1531 1532 1532 1534 1535 1536 1537 1539 1540 1541 1543 1544 1545 1546 1548 1549 1550 1551 1551 1551 1551 1552 1552 1552 1552 1553 1553 1554 1554 1554 1554 1554 1555 1555 1556 1556 1557 1557 1558 1559 1559 1560 1560
1533 1534 1535 1536 1537 1538 1539 1540 1542 1543 1544 1546 1546 1547 1549 1550 1550 1551 1551 1551 1552 1552 1552 1552 1552 1553 1553 1553 1553 1553 1554 1554 1554 1554 1554 1555 1555 1555 1556 1556 1557 1557 1558
1535 1536 1536 1537 1539 1540 1541 1542 1543 1545 1546 1547 1547 1548 1549 1550 1551 1551 1551 1552 1552 1552 1552 1552 1552 1552 1553 1553 1553 1553 1553 1553 1553 1553 1553 1553 1553 1553 1554 1554 1554 1555 1555
1537 1538 1538 1539 1540 1541 1542 1544 1545 1546 1547 1547 1548 1549 1550 1550 1551 1551 1551 1551 1551 1552 1552 1552 1552 1552 1552 1552 1552 1552 1552 1552 1552 1552 1551 1551 1551 1551 1552 1551 1551 1551 1552
1539 1539 1540 1540 1541 1542 1543 1544 1545 1546 1547 1548 1549 1549 1550 1552 1550 1551 1551 1551 1551 1551 1551 1551 1551 1551 1551 1551 1551 1551 1551 1551 1550 1550 1550 1550 1549 1549 1549 1549 1549 1549 1549
1540 1540 1540 1541 1542 1543 1544 1545 1546 1546 1547 1548 1549 1550 1550 1550 1550 1551 1550 1550 1550 1550 1550 1551 1551 1550 1550 1550 1550 1550 1549 1549 1549 1549 1548 1548 1547 1547 1547 1546 1546 1546 1545
1540 1541 1541 1542 1542 1543 1544 1545 1545 1546 1546 1547 1548 1548 1549 1549 1550 1550 1550 1550 1550 1550 1550 1550 1550 1549 1549 1549 1548 1548 1548 1547 1547 1547 1546 1545 1545 1545 1544 1544 1543 1543 1542
1540 1540 1541 1541 1542 1542 1543 1544 1544 1545 1546 1546 1547 1547 1547 1548 1548 1549 1548 1549 1549 1549 1549 1548 1548 1548 1547 1547 1546 1546 1546 1545 1545 1545 1544 1544 1543 1542 1542 1542 1541 1541 1540
1539 1539 1540 1541 1541 1542 1542 1543 1543 1544 1545 1545 1545 1546 1546 1547 1547 1547 1547 1547 1547 1547 1547 1547 1547 1546 1546 1545 1545 1544 1544 1544 1543 1543 1542 1542 1541 1541 1540 1540 1539 1539 1538
1538 1539 1539 1539 1540 1540 1541 1541 1542 1542 1543 1543 1544 1544 1545 1545 1545 1545 1545 1545 1545 1545 1545 1545 1545 1545 1544 1544 1543 1543 1543 1542 1542 1541 1541 1540 1540 1539 1539 1538 1537 1537 1536
1537 1537 1538 1538 1539 1539 1539 1539 1540 1540 1541 1541 1542 1542 1543 1543 1543 1543 1544 1543 1543 1543 1543 1543 1543 1543 1542 1542 1542 1541 1541 1541 1541 1540 1540 1539 1538 1538 1537 1536 1536 1535 1534
1535 1536 1536 1536 1537 1537 1538 1538 1538 1538 1539 1539 1540 1540 1540 1541 1541 1541 1542 1542 1542 1541 1540 1540 1541 1540 1540 1540 1540 1540 1540 1540 1539 1539 1538 1537 1537 1536 1536 1535 1534 1534 1533
1534 1534 1534 1534 1534 1535 1535 1535 1535 1536 1536 1537 1537 1538 1538 1538 1539 1539 1539 1539 1539 1539 1538 1538 1538 1538 1538 1538 1538 1538 1538 1538 1538 1537 1537 1536 1536 1535 1534 1534 1533 1532 1531
1532 1532 1532 1532 1532 1533 1533 1533 1533 1533 1533 1534 1534 1535 1535 1536 1536 1536 1536 1536 1536 1536 1535 1535 1536 1536 1536 1536 1536 1536 1536 1536 1536 1536 1535 1535 1535 1534 1533 1533 1532 1531 1530
1529 1530 1530 1530 1530 1530 1530 1530 1530 1530 1530 1531 1531 1532 1532 1532 1532 1533 1533 1533 1533 1533 1533 1532 1533 1533 1533 1534 1534 1534 1534 1534 1534 1534 1534 1533 1533 1533 1532 1532 1531 1530 1529
1527 1527 1527 1527 1527 1527 1527 1527 1527 1527 1527 1528 1528 1528 1529 1529 1529 1529 1529 1529 1530 1530 1530 1530 1529 1530 1530 1531 1531 1531 1531 1532 1532 1532 1532 1532 1532 1531 1531 1530 1530 1529 1529
1524 1524 1524 1524 1524 1524 1525 1525 1525 1525 1525 1525 1525 1525 1525 1525 1526 1526 1526 1526 1526 1526 1527 1527 1526 1527 1527 1528 1528 1528 1528 1529 1530 1530 1530 1530 1530 1530 1529 1529 1528 1528 1527
1521 1521 1521 1522 1522 1522 1522 1522 1522 1522 1522 1522 1522 1522 1522 1522 1522 1522 1522 1522 1522 1523 1523 1523 1523 1523 1524 1524 1524 1525 1525 1526 1526 1527 1527 1527 1527 1528 1528 1527 1527 1527 1526
1519 1519 1518 1519 1519 1519 1519 1519 1519 1519 1519 1519 1519 1519 1519 1519 1518 1518 1518 1519 1519 1519 1519 1519 1519 1519 1520 1520 1521 1521 1522 1522 1523 1524 1524 1525 1525 1525 1525 1525 1525 1525 1524
1517 1516 1516 1516 1516 1516 1516 1516 1516 1516 1516 1516 1516 1516 1515 1515 1515 1514 1514 1514 1515 1515 1515 1516 1515 1515 1516 1516 1517 1518 1518 1519 1519 1520 1521 1521 1522 1522 1523 1522 1523 1523 1522
1514 1513 1514 1514 1513 1513 1513 1513 1512 1512 1512 1512 1512 1512 1512 1511 1511 1510 1510 1510 1510 1510 1511 1511 1511 1512 1512 1513 1513 1514 1514 1515 1516 1517 1518 1518 1518 1519 1519 1519 1520 1520 1520
1511 1510 1511 1511 1511 1511 1510 1510 1509 1508 1508 1508 1508 1508 1508 1507 1507 1507 1506 1505 1505 1506 1506 1507 1507 1508 1508 1509 1510 1510 1510 1511 1511 1513 1514 1514 1514 1515 1516 1516 1516 1517 1517
1507 1507 1508 1507 1507 1507 1507 1506 1506 1505 1504 1503 1504 1504 1504 1503 1503 1502 1502 1501 1501 1501 1501 1502 1502 1503 1504 1504 1505 1506 1506 1507 1507 1508 1509 1510 1510 1511 1511 1512 1513 1513 1513